Voltar ao catálogo

KUIPER-00066

AtivoComunicaçõesLEO
NORAD 64526·PAYLOAD·🇺🇸 United States

Lançado Jun 23, 2025 de Cape Canaveral Space Force Station

Loading…

Próximas Passagens (próximas 24 horas)

TLE

AtualizadoSource: CelesTrak SupGP

Época: Sep 14, 2026, 19:57 UTC

1 64526C 25134AC  26257.83131944  .00005311  00000+0  69529-3 0  2573
2 64526  51.9016  61.6292 0000644 106.1331  24.1548 14.79923663    17

Acompanhe KUIPER-00066 em tempo real com AllMySat

Download on the App Store